N9GKE-1 Weather Reports


time (UTC)temp
C
wind
direction
speed
KPH
gust
KPH
rain 1hr
cm
rain 24hr
cm
rain mn
cm
humidity
%
barometer
mb
20260906091343 19 30 0.0 14.5 0.00 0.00 0.00 92 1015.1
20260906090343 20 30 0.0 14.5 0.00 0.00 0.00 92 1015.1
20260906085343 20 29 1.6 14.5 0.00 0.00 0.00 92 1014.9
20260906085243 20 50 1.6 14.5 0.00 0.00 0.00 92 1015.0
20260906084344 20 28 1.6 14.5 0.00 0.00 0.00 92 1015.0
20260906084243 20 35 1.6 14.5 0.00 0.00 0.00 92 1014.9
20260906083343 20 75 1.6 14.5 0.00 0.00 0.00 92 1014.9
20260906082344 20 46 1.6 14.5 0.00 0.00 0.00 92 1015.0
20260906082243 20 46 0.0 14.5 0.00 0.00 0.00 92 1015.0
20260906081344 20 44 1.6 14.5 0.00 0.00 0.00 92 1015.0
20260906080344 20 52 1.6 14.5 0.00 0.00 0.00 92 1014.9
20260906075343 20 61 1.6 14.5 0.00 0.00 0.00 92 1014.8
20260906074344 20 64 3.2 14.5 0.00 0.00 0.00 91 1014.8
20260906073344 20 34 1.6 14.5 0.00 0.00 0.00 91 1014.7
20260906073242 20 47 1.6 14.5 0.00 0.00 0.00 91 1014.6
20260906072343 20 47 1.6 14.5 0.00 0.00 0.00 91 1014.6
20260906071343 21 61 3.2 14.5 0.00 0.00 0.00 92 1014.6
20260906071244 21 48 3.2 14.5 0.00 0.00 0.00 92 1014.6
20260906070344 21 62 3.2 14.5 0.00 0.00 0.00 92 1014.7
20260906065343 21 41 1.6 14.5 0.00 0.00 0.00 92 1014.7
20260906064344 21 57 1.6 14.5 0.00 0.00 0.00 92 1014.6
20260906063343 21 57 1.6 14.5 0.00 0.00 0.00 92 1014.6
20260906062343 21 46 1.6 14.5 0.00 0.00 0.00 92 1014.5
20260906061344 21 36 1.6 14.5 0.00 0.00 0.00 91 1014.5
20260906060344 21 47 3.2 14.5 0.00 0.00 0.00 91 1014.4
20260906055344 21 89 3.2 14.5 0.00 0.00 0.00 91 1014.4
20260906054343 21 50 1.6 14.5 0.00 0.00 0.00 91 1014.2
20260906054244 21 94 1.6 14.5 0.00 0.00 0.00 91 1014.2
20260906053344 21 69 3.2 14.5 0.00 0.00 0.00 91 1014.1
20260906053244 21 19 3.2 14.5 0.00 0.00 0.00 92 1014.2
20260906052344 21 78 1.6 14.5 0.00 0.00 0.00 92 1014.1
20260906051343 21 38 0.0 8.0 0.00 0.00 0.00 93 1014.1
20260906050342 21 64 1.6 6.4 0.00 0.00 0.00 92 1014.0
20260906045343 22 42 1.6 6.4 0.00 0.00 0.00 92 1013.9
20260906044343 22 34 0.0 6.4 0.00 0.00 0.00 91 1013.9
20260906043344 22 34 0.0 6.4 0.00 0.00 0.00 91 1013.8
20260906043244 22 34 0.0 6.4 0.00 0.00 0.00 91 1013.8
20260906042343 22 34 0.0 6.4 0.00 0.00 0.00 91 1013.7
20260906041343 22 55 1.6 6.4 0.00 0.00 0.00 91 1013.8
20260906041244 22 63 1.6 6.4 0.00 0.00 0.00 91 1013.8
20260906040342 22 45 1.6 3.2 0.00 0.00 0.00 91 1013.8
20260906040246 22 64 1.6 3.2 0.00 0.00 0.00 91 1013.8
20260906035343 22 64 1.6 22.5 0.00 0.00 0.00 90 1013.8
20260906034343 22 53 1.6 22.5 0.00 0.00 0.00 90 1013.9
20260906034244 22 48 1.6 22.5 0.00 0.00 0.00 90 1013.9
20260906033344 22 63 3.2 22.5 0.00 0.00 0.00 90 1013.9
20260906032343 22 54 3.2 22.5 0.00 0.00 0.00 90 1013.9
20260906032243 22 38 1.6 22.5 0.00 0.00 0.00 90 1013.8
20260906031342 22 39 3.2 22.5 0.00 0.00 0.00 89 1013.6
20260906031244 22 47 4.8 22.5 0.00 0.00 0.00 89 1013.6
20260906030343 22 24 3.2 22.5 0.00 0.00 0.00 89 1013.6
20260906025342 22 48 3.2 22.5 0.00 0.00 0.00 88 1013.7
20260906024344 22 24 3.2 22.5 0.00 0.00 0.00 88 1013.5
20260906024242 22 58 3.2 22.5 0.00 0.00 0.00 88 1013.5
20260906023343 22 50 3.2 22.5 0.00 0.00 0.00 88 1013.4
20260906022343 22 52 4.8 22.5 0.00 0.00 0.00 87 1013.3
20260906022243 22 47 4.8 22.5 0.00 0.00 0.00 87 1013.3
20260906021342 23 59 3.2 22.5 0.00 0.00 0.00 86 1013.3
20260906020344 23 28 1.6 22.5 0.00 0.00 0.00 86 1013.0
20260906020243 23 40 3.2 22.5 0.00 0.00 0.00 86 1013.0
20260906015343 23 23 3.2 22.5 0.00 0.00 0.00 85 1013.1
20260906015242 23 52 4.8 22.5 0.00 0.00 0.00 85 1013.1
20260906014342 23 15 3.2 22.5 0.00 0.00 0.00 84 1013.0
20260906013344 24 22 4.8 22.5 0.00 0.00 0.00 84 1012.7
20260906013245 24 13 3.2 22.5 0.00 0.00 0.00 84 1012.7
20260906012344 24 21 3.2 22.5 0.00 0.00 0.00 83 1012.8
20260906012245 24 37 1.6 22.5 0.00 0.00 0.00 83 1012.8
20260906011345 25 57 4.8 22.5 0.00 0.00 0.00 82 1012.5
20260906011245 25 51 4.8 22.5 0.00 0.00 0.00 82 1012.5
20260906010344 25 38 3.2 22.5 0.00 0.00 0.00 82 1012.3
20260906010245 25 0 3.2 22.5 0.00 0.00 0.00 82 1012.3
20260906005343 25 55 1.6 22.5 0.00 0.00 0.00 81 1012.1
20260906005245 25 48 1.6 22.5 0.00 0.00 0.00 81 1012.1
20260906004344 25 15 3.2 22.5 0.00 0.00 0.00 81 1012.1
20260906004245 25 6 1.6 22.5 0.00 0.00 0.00 81 1012.0
20260906003345 26 343 3.2 22.5 0.00 0.00 0.00 79 1011.9
20260906003244 26 337 3.2 22.5 0.00 0.00 0.00 79 1011.9
20260906002344 26 23 1.6 22.5 0.00 0.00 0.00 78 1011.8
20260906002244 26 18 1.6 22.5 0.00 0.00 0.00 78 1011.8
20260906001344 26 23 3.2 22.5 0.00 0.00 0.00 77 1012.0
20260906001245 26 355 3.2 22.5 0.00 0.00 0.00 77 1012.0
20260906000343 27 28 3.2 22.5 0.00 0.00 0.00 76 1011.8
20260906000039 27 47 4.8 22.5 0.00 0.00 0.00 76 1011.7
20260905235344 27 11 8.0 22.5 0.00 0.00 0.00 75 1011.6
20260905234344 28 32 0.0 22.5 0.00 0.00 0.00 75 1011.6
20260905234244 28 358 1.6 22.5 0.00 0.00 0.00 75 1011.5
20260905233344 28 40 1.6 22.5 0.00 0.00 0.00 75 1011.5
20260905233243 28 45 3.2 22.5 0.00 0.00 0.00 75 1011.4
20260905232344 28 27 1.6 22.5 0.00 0.00 0.00 74 1011.4
20260905232245 28 14 1.6 22.5 0.00 0.00 0.00 73 1011.4
20260905231344 28 17 1.6 22.5 0.00 0.00 0.00 72 1011.4
20260905231243 28 27 1.6 22.5 0.00 0.00 0.00 72 1011.4
20260905230344 29 345 1.6 22.5 0.00 0.00 0.00 72 1011.3
20260905230245 29 34 1.6 22.5 0.00 0.00 0.00 72 1011.4
20260905225344 29 339 3.2 22.5 0.00 0.00 0.00 71 1011.1
20260905225245 29 35 4.8 22.5 0.00 0.00 0.00 71 1011.1
20260905224345 30 45 1.6 22.5 0.00 0.00 0.00 71 1011.1
20260905224244 30 92 3.2 22.5 0.00 0.00 0.00 71 1011.1
20260905223345 30 35 4.8 22.5 0.00 0.00 0.00 70 1011.0
20260905223244 30 33 8.0 22.5 0.00 0.00 0.00 70 1010.9
20260905222344 30 357 1.6 22.5 0.00 0.00 0.00 71 1010.8
20260905222245 30 346 3.2 22.5 0.00 0.00 0.00 71 1010.8
20260905221344 30 24 3.2 22.5 0.00 0.00 0.00 71 1010.6
20260905221244 30 0 4.8 22.5 0.00 0.00 0.00 71 1010.7
20260905220345 30 37 4.8 22.5 0.00 0.00 0.00 71 1010.7
20260905220244 31 39 4.8 22.5 0.00 0.00 0.00 71 1010.5
20260905215344 31 61 4.8 22.5 0.00 0.00 0.00 71 1010.6
20260905215244 31 30 3.2 22.5 0.00 0.00 0.00 72 1010.6
20260905214345 31 2 8.0 22.5 0.00 0.00 0.00 71 1010.6
20260905214244 31 28 4.8 22.5 0.00 0.00 0.00 71 1010.5
20260905213343 31 321 3.2 22.5 0.00 0.00 0.00 71 1010.3
20260905212345 31 17 3.2 22.5 0.00 0.00 0.00 71 1010.2
20260905212244 31 69 1.6 22.5 0.00 0.00 0.00 70 1010.2
20260905211346 32 30 3.2 22.5 0.00 0.00 0.00 71 1010.1
20260905211245 32 345 3.2 22.5 0.00 0.00 0.00 72 1010.1
20260905210344 32 18 1.6 22.5 0.00 0.00 0.00 72 1010.1
20260905210245 32 293 1.6 22.5 0.00 0.00 0.00 71 1010.1
20260905205345 32 343 3.2 22.5 0.00 0.00 0.00 72 1010.1
20260905205244 32 13 4.8 22.5 0.00 0.00 0.00 71 1010.2
20260905204343 32 32 1.6 22.5 0.00 0.00 0.00 71 1010.3
20260905204244 32 338 3.2 22.5 0.00 0.00 0.00 71 1010.3
20260905203343 32 316 1.6 22.5 0.00 0.00 0.00 69 1010.2
20260905203244 32 295 3.2 22.5 0.00 0.00 0.00 69 1010.2
20260905202344 32 343 1.6 22.5 0.00 0.00 0.00 68 1010.2
20260905202243 32 327 3.2 22.5 0.00 0.00 0.00 67 1010.2
20260905201344 32 318 3.2 22.5 0.00 0.00 0.00 68 1010.2
20260905201245 32 1 4.8 22.5 0.00 0.00 0.00 68 1010.3
20260905200344 32 54 3.2 22.5 0.00 0.00 0.00 70 1010.3
20260905200243 32 356 3.2 22.5 0.00 0.00 0.00 72 1010.3
20260905195345 31 34 1.6 22.5 0.00 0.00 0.00 72 1010.3
20260905195244 31 34 1.6 22.5 0.00 0.00 0.00 71 1010.3
20260905194345 31 15 1.6 22.5 0.00 0.00 0.00 70 1010.5
20260905194245 31 352 3.2 22.5 0.00 0.00 0.00 70 1010.5
20260905193345 32 53 8.0 22.5 0.00 0.00 0.00 68 1010.9
20260905193244 32 53 4.8 22.5 0.00 0.00 0.00 68 1010.9
20260905192343 32 302 3.2 22.5 0.00 0.00 0.00 70 1011.1
20260905192244 32 3 1.6 22.5 0.00 0.00 0.00 70 1011.1
20260905191345 32 333 1.6 22.5 0.00 0.00 0.00 67 1011.1
20260905191245 32 344 1.6 22.5 0.00 0.00 0.00 67 1011.1
20260905190344 33 276 3.2 22.5 0.00 0.00 0.00 66 1010.8
20260905190245 33 310 4.8 22.5 0.00 0.00 0.00 66 1010.9
20260905185344 33 353 4.8 22.5 0.00 0.00 0.00 64 1011.1
20260905185244 33 318 8.0 22.5 0.00 0.00 0.00 64 1011.2
20260905184345 33 46 1.6 22.5 0.00 0.00 0.00 68 1011.1
20260905184244 33 352 1.6 22.5 0.00 0.00 0.00 67 1011.2
20260905183344 32 192 1.6 22.5 0.00 0.00 0.00 67 1011.2
20260905183244 32 222 1.6 22.5 0.00 0.00 0.00 66 1011.3
20260905182343 32 329 3.2 22.5 0.00 0.00 0.00 67 1011.6
20260905182244 32 342 1.6 22.5 0.00 0.00 0.00 68 1011.6
20260905181344 32 176 1.6 22.5 0.00 0.00 0.00 68 1011.6
20260905181245 32 29 0.0 22.5 0.00 0.00 0.00 69 1011.7
20260905180343 32 206 1.6 22.5 0.00 0.00 0.00 70 1011.7
20260905180243 32 217 1.6 22.5 0.00 0.00 0.00 69 1011.8
20260905175344 32 312 1.6 22.5 0.00 0.00 0.00 68 1011.9
20260905175245 32 325 3.2 22.5 0.00 0.00 0.00 67 1012.0
20260905174343 32 331 1.6 22.5 0.00 0.00 0.00 67 1012.1
20260905173345 31 236 1.6 22.5 0.00 0.00 0.00 69 1012.2
20260905173243 31 245 1.6 22.5 0.00 0.00 0.00 68 1012.2
20260905172343 31 274 1.6 22.5 0.00 0.00 0.00 69 1012.3
20260905172244 31 320 0.0 22.5 0.00 0.00 0.00 68 1012.3
20260905171345 31 253 0.0 22.5 0.00 0.00 0.00 68 1012.5
20260905171244 31 231 1.6 22.5 0.00 0.00 0.00 69 1012.6
20260905170345 31 136 4.8 22.5 0.00 0.00 0.00 67 1012.5
20260905165344 31 199 1.6 22.5 0.00 0.00 0.00 69 1012.7
20260905165243 31 218 1.6 22.5 0.00 0.00 0.00 68 1012.7
20260905164343 30 205 1.6 22.5 0.00 0.00 0.00 68 1012.7
20260905164243 30 180 3.2 22.5 0.00 0.00 0.00 67 1012.8
20260905163345 30 187 1.6 22.5 0.00 0.00 0.00 68 1012.7
20260905163245 30 173 1.6 22.5 0.00 0.00 0.00 68 1012.7
20260905162344 30 165 1.6 22.5 0.00 0.00 0.00 70 1012.7
20260905161344 30 114 0.0 22.5 0.00 0.00 0.00 71 1012.7
20260905161244 30 150 1.6 22.5 0.00 0.00 0.00 70 1012.7
20260905160345 29 200 1.6 22.5 0.00 0.00 0.00 72 1012.7
20260905155346 29 176 1.6 22.5 0.00 0.00 0.00 72 1012.7
20260905155245 29 175 1.6 22.5 0.00 0.00 0.00 73 1012.8
20260905154345 28 183 3.2 22.5 0.00 0.00 0.00 73 1012.7
20260905154244 28 205 1.6 22.5 0.00 0.00 0.00 73 1012.8
20260905153344 28 182 3.2 22.5 0.00 0.00 0.00 74 1012.8
20260905153244 28 174 3.2 22.5 0.00 0.00 0.00 73 1012.8
20260905152344 27 215 1.6 22.5 0.00 0.00 0.00 75 1012.8
20260905152244 27 225 1.6 22.5 0.00 0.00 0.00 76 1012.8
20260905151343 27 173 3.2 22.5 0.00 0.00 0.00 77 1012.7
20260905150344 26 221 4.8 22.5 0.00 0.00 0.00 77 1012.6
20260905150244 26 197 4.8 22.5 0.00 0.00 0.00 77 1012.6
20260905145343 26 167 3.2 20.9 0.00 0.00 0.00 79 1012.8
20260905145243 26 177 3.2 20.9 0.00 0.00 0.00 79 1012.9
20260905144345 26 168 1.6 20.9 0.00 0.00 0.00 81 1013.0
20260905143345 26 174 3.2 20.9 0.00 0.00 0.00 82 1012.9
20260905142344 26 168 1.6 20.9 0.00 0.00 0.00 82 1012.8
20260905142243 26 173 1.6 20.9 0.00 0.00 0.00 82 1012.8
20260905141344 26 175 3.2 20.9 0.00 0.00 0.00 83 1012.6
20260905140343 25 192 1.6 20.9 0.00 0.00 0.00 81 1012.7
20260905140244 25 196 3.2 20.9 0.00 0.00 0.00 80 1012.6
20260905135346 25 204 1.6 20.9 0.00 0.00 0.00 81 1012.5
20260905135244 25 184 3.2 20.9 0.00 0.00 0.00 81 1012.5
20260905134344 25 170 8.0 20.9 0.00 0.00 0.00 81 1012.4
20260905134244 25 193 4.8 20.9 0.00 0.00 0.00 82 1012.4
20260905133344 25 183 8.0 20.9 0.00 0.00 0.00 83 1012.4
20260905133243 25 182 8.0 20.9 0.00 0.00 0.00 84 1012.5
20260905132345 25 154 4.8 20.9 0.00 0.00 0.00 83 1012.7
20260905132244 25 157 3.2 20.9 0.00 0.00 0.00 83 1012.7
20260905131344 25 143 3.2 20.9 0.00 0.00 0.00 81 1012.7
20260905131244 25 175 4.8 20.9 0.00 0.00 0.00 81 1012.7
20260905130343 25 170 1.6 20.9 0.00 0.00 0.00 82 1012.7
20260905130244 25 183 3.2 20.9 0.00 0.00 0.00 82 1012.7
20260905125343 25 177 3.2 20.9 0.00 0.00 0.00 83 1012.7
20260905124344 25 186 3.2 20.9 0.00 0.00 0.00 87 1012.7
20260905124244 25 185 8.0 20.9 0.00 0.00 0.00 87 1012.6
20260905123344 25 161 8.0 20.9 0.00 0.00 0.00 89 1012.6
20260905122343 25 155 3.2 12.9 0.00 0.00 0.00 91 1012.5
20260905121344 24 102 1.6 11.3 0.00 0.00 0.00 94 1012.3
20260905120344 24 103 3.2 11.3 0.00 0.00 0.00 94 1012.1
20260905120245 24 112 1.6 11.3 0.00 0.00 0.00 94 1012.1
20260905115343 24 241 1.6 3.2 0.00 0.00 0.00 94 1012.0
20260905114343 23 241 1.6 1.6 0.00 0.00 0.00 94 1011.9
20260905113344 24 241 0.0 1.6 0.00 0.00 0.00 94 1011.9
20260905113243 24 241 0.0 1.6 0.00 0.00 0.00 94 1011.9
20260905112343 24 241 0.0 1.6 0.00 0.00 0.00 94 1011.7
20260905112244 24 241 0.0 1.6 0.00 0.00 0.00 94 1011.7
20260905111343 24 241 0.0 1.6 0.00 0.00 0.00 94 1011.6
20260905111244 24 241 0.0 1.6 0.00 0.00 0.00 94 1011.5
20260905110344 24 241 0.0 1.6 0.00 0.00 0.00 94 1011.4
20260905110243 24 241 0.0 1.6 0.00 0.00 0.00 94 1011.4
20260905105343 24 241 0.0 1.6 0.00 0.00 0.00 94 1011.3
20260905104343 24 241 0.0 1.6 0.00 0.00 0.00 94 1011.4
20260905104243 24 241 0.0 1.6 0.00 0.00 0.00 94 1011.4
20260905103343 24 241 0.0 1.6 0.00 0.00 0.00 94 1011.4
20260905102343 24 241 0.0 1.6 0.00 0.00 0.00 94 1011.3
20260905102244 24 241 0.0 1.6 0.00 0.00 0.00 94 1011.4
20260905101343 24 241 0.0 1.6 0.00 0.00 0.00 94 1011.3
20260905101244 24 241 0.0 1.6 0.00 0.00 0.00 94 1011.3
20260905100344 24 241 0.0 1.6 0.00 0.00 0.00 93 1011.5
20260905095343 24 241 0.0 1.6 0.00 0.00 0.00 93 1011.6
20260905094343 24 241 0.0 1.6 0.00 0.00 0.00 93 1011.6
20260905093344 24 241 0.0 1.6 0.00 0.00 0.00 92 1011.7
20260905092344 24 241 0.0 1.6 0.00 0.00 0.00 92 1011.6